YPDN

Darwin International Airport

Airport
ICAO code
YPDN
IATA Code
DRW
Summary
ICAO Region
APAC
ICAO Territory
Location

Marrara, Northern Territory

Serving
Darwin
Elevation
103 ft
Coordinates
12° 24' 54" S , 130° 52' 40" E
KCC
Metar
YPDN 281918Z AUTO 36007KT 9999 -SHRA SCT016 BKN066 OVC077 28/25 Q1008

Darwin International Airport serves the city of Darwin and the rest of the Australian Northern Territory. It is classified as a joint (civil/military) use aerodrome and is located in the northern Darwin suburb of Marrara,13 km from the city centre, .

Climatology

Tropical Savanna climate (Köppen climate classification Aw).

Airport map

Aerial View

SKYbrary Partners:

Safety knowledge contributed by: